SWA1955 KLAS-KMDW

Flight info

Callsign SWA1955
Flight time N/A
Altitude 37000
Route GIDGT2 TUKRR CEZ HELPS RYLIE KIDER J96 IRK ENDEE6
Aircraft B737/M-SDE2E3FGHIRWXY/LB1

Departure

Time 2026-05-07 19:56
Airport Harry Reid International Airport (KLAS)

Arrival

Time N/A
Airport Chicago Midway International Airport (KMDW)
Time Latitude Longitude Altitude Speed Heading
2026-05-07 19:31 36.08258 -115.15347 2116 ft 0 kts 66°
2026-05-07 19:43 36.08258 -115.15348 2116 ft 1 kts 66°
2026-05-07 19:43 36.08252 -115.15367 2119 ft 3 kts 71°
2026-05-07 19:43 36.08247 -115.15390 2122 ft 3 kts 85°
2026-05-07 19:44 36.08255 -115.15429 2122 ft 1 kts 137°
2026-05-07 19:47 36.08243 -115.15422 2132 ft 2 kts 160°
2026-05-07 19:47 36.08229 -115.15420 2139 ft 3 kts 174°
2026-05-07 19:48 36.08203 -115.15416 2134 ft 4 kts 171°
2026-05-07 19:48 36.08169 -115.15398 2137 ft 6 kts 153°
2026-05-07 19:48 36.08131 -115.15361 2137 ft 9 kts 127°
2026-05-07 19:48 36.08105 -115.15268 2137 ft 13 kts 103°
2026-05-07 19:49 36.08046 -115.15203 2139 ft 12 kts 174°
2026-05-07 19:49 36.07978 -115.15200 2141 ft 6 kts 178°
2026-05-07 19:49 36.07936 -115.15200 2142 ft 6 kts 180°
2026-05-07 19:49 36.07889 -115.15199 2142 ft 8 kts 179°
2026-05-07 19:50 36.07826 -115.15174 2141 ft 12 kts 136°
2026-05-07 19:50 36.07801 -115.15048 2138 ft 18 kts 94°
2026-05-07 19:50 36.07792 -115.14890 2134 ft 18 kts 96°
2026-05-07 19:50 36.07780 -115.14737 2127 ft 18 kts 94°
2026-05-07 19:51 36.07769 -115.14574 2121 ft 19 kts 94°
2026-05-07 19:51 36.07759 -115.14414 2118 ft 18 kts 94°
2026-05-07 19:51 36.07754 -115.14257 2119 ft 19 kts 91°
2026-05-07 19:51 36.07754 -115.14094 2099 ft 19 kts 89°
2026-05-07 19:52 36.07754 -115.13933 2098 ft 18 kts 90°
2026-05-07 19:52 36.07753 -115.13778 2094 ft 18 kts 90°
2026-05-07 19:52 36.07753 -115.13628 2090 ft 17 kts 90°
2026-05-07 19:52 36.07753 -115.13484 2088 ft 16 kts 90°
2026-05-07 19:53 36.07753 -115.13345 2084 ft 16 kts 90°
2026-05-07 19:53 36.07753 -115.13199 2077 ft 18 kts 90°
2026-05-07 19:53 36.07754 -115.13038 2071 ft 19 kts 90°
2026-05-07 19:53 36.07752 -115.12874 2066 ft 20 kts 90°
2026-05-07 19:54 36.07753 -115.12698 2058 ft 21 kts 89°
2026-05-07 19:54 36.07754 -115.12514 2054 ft 21 kts 90°
2026-05-07 19:54 36.07753 -115.12334 2050 ft 21 kts 90°
2026-05-07 19:54 36.07752 -115.12174 2046 ft 14 kts 95°
2026-05-07 19:55 36.07688 -115.12115 2049 ft 13 kts 180°
2026-05-07 19:55 36.07639 -115.12184 2049 ft 12 kts 271°
2026-05-07 19:55 36.07639 -115.12309 2050 ft 24 kts 270°
2026-05-07 19:55 36.07640 -115.12823 2064 ft 95 kts 270°
2026-05-07 19:56 36.07640 -115.13894 2095 ft 155 kts 270°
2026-05-07 19:56 36.07653 -115.15425 2296 ft 190 kts 272°
2026-05-07 19:56 36.07661 -115.17022 3276 ft 186 kts 271°
2026-05-07 19:56 36.07660 -115.18621 4093 ft 190 kts 270°
2026-05-07 19:57 36.07654 -115.20374 4402 ft 218 kts 268°
2026-05-07 19:57 36.07462 -115.22354 4664 ft 244 kts 260°
2026-05-07 19:57 36.07066 -115.24453 5215 ft 256 kts 245°
2026-05-07 19:57 36.05951 -115.26166 6030 ft 264 kts 216°
2026-05-07 19:58 36.04250 -115.27179 6599 ft 280 kts 200°
2026-05-07 19:58 36.02394 -115.28015 7308 ft 288 kts 200°
2026-05-07 19:58 36.00442 -115.28667 7761 ft 289 kts 182°
2026-05-07 19:58 35.98474 -115.28214 8052 ft 297 kts 154°
2026-05-07 19:59 35.96749 -115.26802 8846 ft 300 kts 137°
2026-05-07 19:59 35.95179 -115.25061 9657 ft 305 kts 135°
2026-05-07 19:59 35.93599 -115.23268 10368 ft 314 kts 134°
2026-05-07 19:59 35.91925 -115.21385 10603 ft 339 kts 134°
2026-05-07 20:00 35.90427 -115.19051 10865 ft 355 kts 117°
2026-05-07 20:00 35.89206 -115.16376 11565 ft 360 kts 116°
2026-05-07 20:00 35.87958 -115.13699 12432 ft 360 kts 117°
2026-05-07 20:00 35.86905 -115.10922 13212 ft 358 kts 101°
2026-05-07 20:01 35.86665 -115.07882 13963 ft 356 kts 84°
2026-05-07 20:01 35.86806 -115.04846 14813 ft 355 kts 83°
2026-05-07 20:01 35.86999 -115.01789 15550 ft 360 kts 82°
2026-05-07 20:01 35.87203 -114.98699 16224 ft 365 kts 82°
2026-05-07 20:02 35.87403 -114.95550 16939 ft 369 kts 82°
2026-05-07 20:02 35.87594 -114.92374 17655 ft 373 kts 82°
2026-05-07 20:02 35.87779 -114.89162 18353 ft 378 kts 82°
2026-05-07 20:02 35.87957 -114.85956 18958 ft 382 kts 82°
2026-05-07 20:03 35.88134 -114.82681 19612 ft 384 kts 83°
2026-05-07 20:03 35.88311 -114.79384 20291 ft 387 kts 82°
2026-05-07 20:03 35.88487 -114.76064 20930 ft 390 kts 82°
2026-05-07 20:03 35.88665 -114.72715 21515 ft 394 kts 83°
2026-05-07 20:04 35.88843 -114.69323 22118 ft 397 kts 83°
2026-05-07 20:04 35.89021 -114.65914 22768 ft 399 kts 83°
2026-05-07 20:04 35.89200 -114.62490 23332 ft 402 kts 83°
2026-05-07 20:04 35.89380 -114.59032 23790 ft 406 kts 83°
2026-05-07 20:05 35.89560 -114.55546 24271 ft 408 kts 83°
2026-05-07 20:05 35.89731 -114.52045 24780 ft 410 kts 84°
2026-05-07 20:05 35.89789 -114.48515 25272 ft 413 kts 86°
2026-05-07 20:05 35.89770 -114.44951 25741 ft 416 kts 86°